RADUGA 14 [-]

Last updated on June 23, 2019, 3:41 a.m. UTC

1 14725U 84016A   19173.48837406 -.00000005  00000-0  00000+0 0  9994
2 14725  13.2013 332.8691 0003437  59.6552 117.5280  1.00265119 92495
UTC
Height (km)
Latitude
Longitude
Inclination
Orbital Period
UTC large
Height (km)
Speed (km/s)
/
Latitude / Longitude
Inclination (degrees)
Orbital Period (minutes)
Azimuth
Elevation
Range (km)
Doppler Factor
iOS Compass Heading
iOS Angle

Next 30 passes for location: Hong Kong

Rise time Rise Azimuth (degrees) Set time Set Azimuth (degrees) Duration Max altitude (degrees)

No matching passes for this satellites